Date,TemperatureHighF,TemperatureAvgF,TemperatureLowF,DewpointHighF,DewpointAvgF,DewpointLowF,HumidityHigh,HumidityAvg,HumidityLow,PressureMaxIn,PressureMinIn,WindSpeedMaxMPH,WindSpeedAvgMPH,GustSpeedMaxMPH,PrecipitationSumIn
2013-1-1,23,20,13,-100,-100,-100,0,0,100,0.00,40.00,0,-999,0,0.01
2013-1-2,33,20,9,-100,-100,-100,0,0,100,0.00,40.00,0,-999,0,0.01
2013-1-3,37,30,19,-100,-100,-100,0,0,100,0.00,40.00,0,-999,0,0.08
2013-1-4,38,27,18,-100,-100,-100,0,0,100,0.00,40.00,0,-999,0,0.01
2013-1-5,41,33,21,-100,-100,-100,0,0,100,0.00,40.00,0,-999,0,0.02
2013-1-6,40,31,23,-100,-100,-100,0,0,100,0.00,40.00,0,-999,0,0.01
2013-1-7,47,32,22,-100,-100,-100,0,0,100,0.00,40.00,0,-999,0,0.00
2013-1-8,51,38,28,-100,-100,-100,0,0,100,0.00,40.00,0,-999,0,0.00
2013-1-9,52,42,32,-100,-100,-100,0,0,100,0.00,40.00,0,-999,0,0.00
2013-1-10,47,39,30,-100,-100,-100,0,0,100,0.00,40.00,0,-999,0,0.70
2013-1-11,61,54,47,-100,-100,-100,0,0,100,0.00,40.00,0,-999,0,0.75
2013-1-12,57,43,29,-100,-100,-100,0,0,100,0.00,40.00,0,-999,0,0.00
2013-1-13,28,22,18,-100,-100,-100,0,0,100,0.00,40.00,0,-999,0,0.01
2013-1-14,27,20,16,-100,-100,-100,0,0,100,0.00,40.00,0,-999,0,0.01
2013-1-15,29,22,14,-100,-100,-100,0,0,100,0.00,40.00,0,-999,0,0.01
2013-1-16,41,30,18,-100,-100,-100,0,0,100,0.00,40.00,0,-999,0,0.00
2013-1-17,37,32,25,-100,-100,-100,0,0,100,0.00,40.00,0,-999,0,0.00
2013-1-18,53,40,24,-100,-100,-100,0,0,100,0.00,40.00,0,-999,0,0.00
2013-1-19,58,49,43,-100,-100,-100,0,0,100,0.00,40.00,0,-999,0,0.00
2013-1-20,43,26,20,-100,-100,-100,0,0,100,0.00,40.00,0,-999,0,0.00
2013-1-21,20,16,13,-100,-100,-100,0,0,100,0.00,40.00,0,-999,0,0.00
2013-1-22,18,14,9,-100,-100,-100,0,0,100,0.00,40.00,0,-999,0,0.00
2013-1-23,38,24,13,-100,-100,-100,0,0,100,0.00,40.00,0,-999,0,0.00
2013-1-24,26,20,13,-100,-100,-100,0,0,100,0.00,40.00,0,-999,0,0.00
2013-1-25,41,32,26,-100,-100,-100,0,0,100,0.00,40.00,0,-999,0,0.00
2013-1-26,36,27,18,-100,-100,-100,0,0,100,0.00,40.00,0,-999,0,0.00
2013-1-27,51,35,25,-100,-100,-100,0,0,100,0.00,40.00,0,-999,0,0.26
2013-1-28,68,57,47,-100,-100,-100,0,0,100,0.00,40.00,0,-999,0,0.02
2013-1-29,67,60,53,-100,-100,-100,0,0,100,0.00,40.00,0,-999,0,0.94
2013-1-30,53,35,26,-100,-100,-100,0,0,100,0.00,40.00,0,-999,0,0.21
2013-1-31,27,19,10,-100,-100,-100,0,0,100,0.00,40.00,0,-999,0,0.00
2013-2-1,27,15,7,-100,-100,-100,0,0,100,0.00,40.00,0,-999,0,0.00
2013-2-2,34,30,26,-100,-100,-100,0,0,100,0.00,40.00,0,-999,0,0.00
2013-2-3,35,30,26,-100,-100,-100,0,0,100,0.00,40.00,0,-999,0,0.00
2013-2-4,45,33,28,-100,-100,-100,0,0,100,0.00,40.00,0,-999,0,0.00
2013-2-5,49,35,28,-100,-100,-100,0,0,100,0.00,40.00,0,-999,0,0.00
2013-2-6,52,37,25,-100,-100,-100,0,0,100,0.00,40.00,0,-999,0,0.00
2013-2-7,43,39,36,-100,-100,-100,0,0,100,0.00,40.00,0,-999,0,0.39
2013-2-8,36,33,30,-100,-100,-100,0,0,100,0.00,40.00,0,-999,0,0.01
2013-2-9,40,34,30,-100,-100,-100,0,0,100,0.00,40.00,0,-999,0,0.00
2013-2-10,57,46,38,-100,-100,-100,0,0,100,0.00,40.00,0,-999,0,0.64
2013-2-11,46,39,32,-100,-100,-100,0,0,100,0.00,40.00,0,-999,0,0.01
2013-2-12,41,33,27,-100,-100,-100,0,0,100,0.00,40.00,0,-999,0,0.00
2013-2-13,50,38,30,-100,-100,-100,0,0,100,0.00,40.00,0,-999,0,0.00
2013-2-14,49,43,38,-100,-100,-100,0,0,100,0.00,40.00,0,-999,0,0.00
2013-2-15,38,32,26,-100,-100,-100,0,0,100,0.00,40.00,0,-999,0,0.00
2013-2-16,34,26,19,-100,-100,-100,0,0,100,0.00,40.00,0,-999,0,0.00
2013-2-17,46,32,20,-100,-100,-100,0,0,100,0.00,40.00,0,-999,0,0.00
2013-2-18,57,42,31,-100,-100,-100,0,0,100,0.00,40.00,0,-999,0,0.16
2013-2-19,30,25,21,-100,-100,-100,0,0,100,0.00,40.00,0,-999,0,0.02
2013-2-20,24,18,12,-100,-100,-100,0,0,100,0.00,40.00,0,-999,0,0.00
2013-2-21,32,27,20,-100,-100,-100,0,0,100,0.00,40.00,0,-999,0,0.00
2013-2-22,33,30,26,-100,-100,-100,0,0,100,0.00,40.00,0,-999,0,0.04
2013-2-23,32,24,16,-100,-100,-100,0,0,100,0.00,40.00,0,-999,0,0.01
2013-2-24,44,26,12,-100,-100,-100,0,0,100,0.00,40.00,0,-999,0,0.39
2013-2-25,43,34,23,-100,-100,-100,0,0,100,0.00,40.00,0,-999,0,0.12
2013-2-26,37,34,33,-100,-100,-100,0,0,100,0.00,40.00,0,-999,0,0.61
2013-2-27,35,33,32,-100,-100,-100,0,0,100,0.00,40.00,0,-999,0,0.09
2013-2-28,35,33,32,-100,-100,-100,0,0,100,0.00,40.00,0,-999,0,0.01
2013-3-1,32,30,27,-100,-100,-100,0,0,100,0.00,40.00,0,-999,0,0.04
2013-3-2,32,28,21,-100,-100,-100,0,0,100,0.00,40.00,0,-999,0,0.01
2013-3-3,35,26,14,-100,-100,-100,0,0,100,0.00,40.00,0,-999,0,0.00
2013-3-4,44,36,32,-100,-100,-100,0,0,100,0.00,40.00,0,-999,0,0.01
2013-3-5,36,34,32,-100,-100,-100,0,0,100,0.00,40.00,0,-999,0,0.03
2013-3-6,34,31,24,-100,-100,-100,0,0,100,0.00,40.00,0,-999,0,0.01
2013-3-7,42,30,19,-100,-100,-100,0,0,100,0.00,40.00,0,-999,0,0.00
2013-3-8,50,39,29,-100,-100,-100,0,0,100,0.00,40.00,0,-999,0,0.00
2013-3-9,59,48,40,-100,-100,-100,0,0,100,0.00,40.00,0,-999,0,0.51
2013-3-10,58,52,45,-100,-100,-100,0,0,100,0.00,40.00,0,-999,0,1.40
2013-3-11,44,36,34,-100,-100,-100,0,0,100,0.00,40.00,0,-999,0,0.01
2013-3-12,42,34,28,-100,-100,-100,0,0,100,0.00,40.00,0,-999,0,0.00
2013-3-13,39,32,27,-100,-100,-100,0,0,100,0.00,40.00,0,-999,0,0.00
2013-3-14,56,38,27,-100,-100,-100,0,0,100,0.00,40.00,0,-999,0,0.00
2013-3-15,65,47,30,-100,-100,-100,0,0,100,0.00,40.00,0,-999,0,0.00
2013-3-16,50,42,38,-100,-100,-100,0,0,100,0.00,40.00,0,-999,0,0.00
2013-3-17,40,36,33,-100,-100,-100,0,0,100,0.00,40.00,0,-999,0,0.04
2013-3-18,49,39,33,-100,-100,-100,0,0,100,0.00,40.00,0,-999,0,0.08
2013-3-19,44,35,29,-100,-100,-100,0,0,100,0.00,40.00,0,-999,0,0.01
2013-3-20,37,29,21,-100,-100,-100,0,0,100,0.00,40.00,0,-999,0,0.00
2013-3-21,38,27,19,-100,-100,-100,0,0,100,0.00,40.00,0,-999,0,0.00
2013-3-22,40,32,25,-100,-100,-100,0,0,100,0.00,40.00,0,-999,0,0.00
2013-3-23,51,42,36,-100,-100,-100,0,0,100,0.00,40.00,0,-999,0,0.00
2013-3-24,39,32,31,-100,-100,-100,0,0,100,0.00,40.00,0,-999,0,0.09
2013-3-25,34,31,30,-100,-100,-100,0,0,100,0.00,40.00,0,-999,0,0.09
2013-3-26,40,34,30,-100,-100,-100,0,0,100,0.00,40.00,0,-999,0,0.63
2013-3-27,44,34,25,-100,-100,-100,0,0,100,0.00,40.00,0,-999,0,0.01
2013-3-28,50,40,31,-100,-100,-100,0,0,100,0.00,40.00,0,-999,0,0.00
2013-3-29,58,46,37,-100,-100,-100,0,0,100,0.00,40.00,0,-999,0,0.00
2013-3-30,55,45,35,-100,-100,-100,0,0,100,0.00,40.00,0,-999,0,0.00
2013-3-31,63,53,46,-100,-100,-100,0,0,100,0.00,40.00,0,-999,0,0.00
2013-4-1,45,40,33,-100,-100,-100,0,0,100,0.00,40.00,0,-999,0,0.00
2013-4-2,48,37,28,-100,-100,-100,0,0,100,0.00,40.00,0,-999,0,0.00
2013-4-3,52,40,31,-100,-100,-100,0,0,100,0.00,40.00,0,-999,0,0.00
2013-4-4,60,47,31,-100,-100,-100,0,0,100,0.00,40.00,0,-999,0,0.00
2013-4-5,63,51,41,-100,-100,-100,0,0,100,0.00,40.00,0,-999,0,0.00
2013-4-6,73,63,51,-100,-100,-100,0,0,100,0.00,40.00,0,-999,0,0.00
2013-4-7,75,62,44,-100,-100,-100,0,0,100,0.00,40.00,0,-999,0,0.00
2013-4-8,70,63,57,-100,-100,-100,0,0,100,0.00,40.00,0,-999,0,0.17
2013-4-9,77,69,63,-100,-100,-100,0,0,100,0.00,40.00,0,-999,0,0.09
2013-4-10,68,57,50,-100,-100,-100,0,0,100,0.00,40.00,0,-999,0,0.48
2013-4-11,53,46,40,-100,-100,-100,0,0,100,0.00,40.00,0,-999,0,0.06
2013-4-12,44,42,39,-100,-100,-100,0,0,100,0.00,40.00,0,-999,0,0.01
2013-4-13,56,46,37,-100,-100,-100,0,0,100,0.00,40.00,0,-999,0,0.01
2013-4-14,79,62,46,-100,-100,-100,0,0,100,0.00,40.00,0,-999,0,0.01
2013-4-15,66,56,47,-100,-100,-100,0,0,100,0.00,40.00,0,-999,0,0.67
2013-4-16,52,47,43,-100,-100,-100,0,0,100,0.00,40.00,0,-999,0,0.09
2013-4-17,60,52,47,-100,-100,-100,0,0,100,0.00,40.00,0,-999,0,0.03
2013-4-18,64,54,41,-100,-100,-100,0,0,100,0.00,40.00,0,-999,0,1.27
2013-4-19,47,42,38,-100,-100,-100,0,0,100,0.00,40.00,0,-999,0,0.02
2013-4-20,52,42,33,-100,-100,-100,0,0,100,0.00,40.00,0,-999,0,0.00
2013-4-21,62,50,42,-100,-100,-100,0,0,100,0.00,40.00,0,-999,0,0.00
2013-4-22,69,58,44,-100,-100,-100,0,0,100,0.00,40.00,0,-999,0,0.00
2013-4-23,59,47,40,-100,-100,-100,0,0,100,0.00,40.00,0,-999,0,0.03
2013-4-24,53,44,37,-100,-100,-100,0,0,100,0.00,40.00,0,-999,0,0.01
2013-4-25,63,51,44,-100,-100,-100,0,0,100,0.00,40.00,0,-999,0,0.01
2013-4-26,60,54,47,-100,-100,-100,0,0,100,0.00,40.00,0,-999,0,0.00
2013-4-27,54,51,47,-100,-100,-100,0,0,100,0.00,40.00,0,-999,0,0.06
2013-4-28,61,56,53,-100,-100,-100,0,0,100,0.00,40.00,0,-999,0,0.01
2013-4-29,78,62,47,-100,-100,-100,0,0,100,0.00,40.00,0,-999,0,0.01
2013-4-30,85,76,65,-100,-100,-100,0,0,100,0.00,40.00,0,-999,0,0.00
2013-5-1,82,70,56,-100,-100,-100,0,0,100,0.00,40.00,0,-999,0,0.00
2013-5-2,64,54,43,-100,-100,-100,0,0,100,0.00,40.00,0,-999,0,0.00
2013-5-3,46,43,41,-100,-100,-100,0,0,100,0.00,40.00,0,-999,0,0.45
2013-5-4,50,47,44,-100,-100,-100,0,0,100,0.00,40.00,0,-999,0,0.11
2013-5-5,67,56,48,-100,-100,-100,0,0,100,0.00,40.00,0,-999,0,0.06
2013-5-6,74,64,54,-100,-100,-100,0,0,100,0.00,40.00,0,-999,0,0.01
2013-5-7,82,67,58,-100,-100,-100,0,0,100,0.00,40.00,0,-999,0,0.00
2013-5-8,80,66,55,-100,-100,-100,0,0,100,0.00,40.00,0,-999,0,0.02
2013-5-9,70,63,60,-100,-100,-100,0,0,100,0.00,40.00,0,-999,0,0.78
2013-5-10,62,58,55,-100,-100,-100,0,0,100,0.00,40.00,0,-999,0,0.01
2013-5-11,62,56,50,-100,-100,-100,0,0,100,0.00,40.00,0,-999,0,0.00
2013-5-12,60,51,43,-100,-100,-100,0,0,100,0.00,40.00,0,-999,0,0.00
2013-5-13,72,59,44,-100,-100,-100,0,0,100,0.00,40.00,0,-999,0,0.00
2013-5-14,91,74,54,-100,-100,-100,0,0,100,0.00,40.00,0,-999,0,0.00
2013-5-15,88,79,72,-100,-100,-100,0,0,100,0.00,40.00,0,-999,0,0.00
2013-5-16,83,74,67,-100,-100,-100,0,0,100,0.00,40.00,0,-999,0,0.05
2013-5-17,78,69,60,-100,-100,-100,0,0,100,0.00,40.00,0,-999,0,0.04
2013-5-18,82,72,64,-100,-100,-100,0,0,100,0.00,40.00,0,-999,0,0.01
2013-5-19,89,78,69,-100,-100,-100,0,0,100,0.00,40.00,0,-999,0,0.00
2013-5-20,81,72,64,-100,-100,-100,0,0,100,0.00,40.00,0,-999,0,1.77
2013-5-21,80,74,65,-100,-100,-100,0,0,100,0.00,40.00,0,-999,0,1.14
2013-5-22,73,68,64,-100,-100,-100,0,0,100,0.00,40.00,0,-999,0,0.00
2013-5-23,67,62,58,-100,-100,-100,0,0,100,0.00,40.00,0,-999,0,0.00
2013-5-24,71,59,49,-100,-100,-100,0,0,100,0.00,40.00,0,-999,0,0.00
2013-5-25,65,58,54,-100,-100,-100,0,0,100,0.00,40.00,0,-999,0,0.18
2013-5-26,77,65,55,-100,-100,-100,0,0,100,0.00,40.00,0,-999,0,0.03
2013-5-27,73,68,64,-100,-100,-100,0,0,100,0.00,40.00,0,-999,0,0.93
2013-5-28,79,73,65,-100,-100,-100,0,0,100,0.00,40.00,0,-999,0,0.03
2013-5-29,86,75,64,-100,-100,-100,0,0,100,0.00,40.00,0,-999,0,0.03
2013-5-30,77,73,70,-100,-100,-100,0,0,100,0.00,40.00,0,-999,0,0.00
2013-5-31,74,70,65,-100,-100,-100,0,0,100,0.00,40.00,0,-999,0,0.30
2013-6-1,77,70,64,-100,-100,-100,0,0,100,0.00,40.00,0,-999,0,0.28
2013-6-2,65,63,60,-100,-100,-100,0,0,100,0.00,40.00,0,-999,0,0.01
2013-6-3,73,63,58,-100,-100,-100,0,0,100,0.00,40.00,0,-999,0,0.00
2013-6-4,75,65,55,-100,-100,-100,0,0,100,0.00,40.00,0,-999,0,0.00
2013-6-5,78,68,58,-100,-100,-100,0,0,100,0.00,40.00,0,-999,0,0.00
2013-6-6,76,69,64,-100,-100,-100,0,0,100,0.00,40.00,0,-999,0,0.00
2013-6-7,73,64,59,-100,-100,-100,0,0,100,0.00,40.00,0,-999,0,0.00
2013-6-8,81,68,58,-100,-100,-100,0,0,100,0.00,40.00,0,-999,0,0.00
2013-6-9,74,68,64,-100,-100,-100,0,0,100,0.00,40.00,0,-999,0,0.46
2013-6-10,81,69,64,-100,-100,-100,0,0,100,0.00,40.00,0,-999,0,0.03
2013-6-11,88,75,63,-100,-100,-100,0,0,100,0.00,40.00,0,-999,0,0.01
2013-6-12,94,81,70,-100,-100,-100,0,0,100,0.00,40.00,0,-999,0,0.00
2013-6-13,86,75,67,-100,-100,-100,0,0,100,0.00,40.00,0,-999,0,0.00
2013-6-14,82,72,65,-100,-100,-100,0,0,100,0.00,40.00,0,-999,0,0.00
2013-6-15,85,74,68,-100,-100,-100,0,0,100,0.00,40.00,0,-999,0,0.63
2013-6-16,84,73,68,-100,-100,-100,0,0,100,0.00,40.00,0,-999,0,0.61
2013-6-17,83,76,69,-100,-100,-100,0,0,100,0.00,40.00,0,-999,0,0.02
2013-6-18,83,76,67,-100,-100,-100,0,0,100,0.00,40.00,0,-999,0,0.00
2013-6-19,88,74,65,-100,-100,-100,0,0,100,0.00,40.00,0,-999,0,0.00
2013-6-20,88,74,66,-100,-100,-100,0,0,100,0.00,40.00,0,-999,0,0.00
2013-6-22,87,79,74,-100,-100,-100,0,0,100,0.00,40.00,0,-999,0,0.01
2013-6-23,87,75,70,-100,-100,-100,0,0,100,0.00,40.00,0,-999,0,0.27
2013-6-24,89,78,70,-100,-100,-100,0,0,100,0.00,40.00,0,-999,0,0.01
2013-6-25,92,83,75,-100,-100,-100,0,0,100,0.00,40.00,0,-999,0,0.00
2013-6-26,89,81,76,-100,-100,-100,0,0,100,0.00,40.00,0,-999,0,0.00
2013-6-27,89,81,74,-100,-100,-100,0,0,100,0.00,40.00,0,-999,0,0.00
2013-6-28,85,80,72,-100,-100,-100,0,0,100,0.00,40.00,0,-999,0,0.00
2013-6-29,77,71,67,-100,-100,-100,0,0,100,0.00,40.00,0,-999,0,0.00
2013-6-30,79,70,65,-100,-100,-100,0,0,100,0.00,40.00,0,-999,0,0.03
2013-7-1,79,71,62,-100,-100,-100,0,0,100,0.00,40.00,0,-999,0,0.03
2013-7-2,75,70,63,-100,-100,-100,0,0,100,0.00,40.00,0,-999,0,0.00
2013-7-3,83,70,62,-100,-100,-100,0,0,100,0.00,40.00,0,-999,0,0.00
2013-7-4,88,75,64,-100,-100,-100,0,0,100,0.00,40.00,0,-999,0,0.00
2013-7-5,85,76,65,-100,-100,-100,0,0,100,0.00,40.00,0,-999,0,0.00
2013-7-6,88,76,67,-100,-100,-100,0,0,100,0.00,40.00,0,-999,0,0.00
2013-7-7,91,78,68,-100,-100,-100,0,0,100,0.00,40.00,0,-999,0,0.00
2013-7-8,88,79,75,-100,-100,-100,0,0,100,0.00,40.00,0,-999,0,0.04
2013-7-9,92,84,77,-100,-100,-100,0,0,100,0.00,40.00,0,-999,0,0.00
2013-7-10,87,80,73,-100,-100,-100,0,0,100,0.00,40.00,0,-999,0,0.16
2013-7-11,84,73,64,-100,-100,-100,0,0,100,0.00,40.00,0,-999,0,0.16
2013-7-12,87,74,63,-100,-100,-100,0,0,100,0.00,40.00,0,-999,0,0.00
2013-7-13,85,74,60,-100,-100,-100,0,0,100,0.00,40.00,0,-999,0,0.00
2013-7-14,91,78,67,-100,-100,-100,0,0,100,0.00,40.00,0,-999,0,0.00
2013-7-15,89,80,71,-100,-100,-100,0,0,100,0.00,40.00,0,-999,0,0.07
2013-7-16,93,83,74,-100,-100,-100,0,0,100,0.00,40.00,0,-999,0,0.01
2013-7-17,96,83,74,-100,-100,-100,0,0,100,0.00,40.00,0,-999,0,0.00
2013-7-18,99,89,76,-100,-100,-100,0,0,100,0.00,40.00,0,-999,0,0.00
2013-7-19,98,87,79,-100,-100,-100,0,0,100,0.00,40.00,0,-999,0,0.00
2013-7-20,85,81,75,-100,-100,-100,0,0,100,0.00,40.00,0,-999,0,0.00
2013-7-21,82,76,71,-100,-100,-100,0,0,100,0.00,40.00,0,-999,0,0.07
2013-7-22,94,78,70,-100,-100,-100,0,0,100,0.00,40.00,0,-999,0,0.08
2013-7-23,84,77,71,-100,-100,-100,0,0,100,0.00,40.00,0,-999,0,0.00
2013-7-24,77,70,64,-100,-100,-100,0,0,100,0.00,40.00,0,-999,0,0.00
2013-7-25,84,71,59,-100,-100,-100,0,0,100,0.00,40.00,0,-999,0,0.00
2013-7-26,78,71,66,-100,-100,-100,0,0,100,0.00,40.00,0,-999,0,0.08
2013-7-27,71,65,59,-100,-100,-100,0,0,100,0.00,40.00,0,-999,0,0.08
2013-7-28,79,65,54,-100,-100,-100,0,0,100,0.00,40.00,0,-999,0,0.00
2013-7-29,80,68,56,-100,-100,-100,0,0,100,0.00,40.00,0,-999,0,0.00
2013-7-30,76,71,66,-100,-100,-100,0,0,100,0.00,40.00,0,-999,0,2.03
2013-7-31,76,72,68,-100,-100,-100,0,0,100,0.00,40.00,0,-999,0,0.01
2013-8-1,90,76,67,-100,-100,-100,0,0,100,0.00,40.00,0,-999,0,0.00
2013-8-2,81,74,69,-100,-100,-100,0,0,100,0.00,40.00,0,-999,0,0.00
2013-8-3,81,73,66,-100,-100,-100,0,0,100,0.00,40.00,0,-999,0,0.00
2013-8-4,83,71,61,-100,-100,-100,0,0,100,0.00,40.00,0,-999,0,0.00
2013-8-5,77,71,64,-100,-100,-100,0,0,100,0.00,40.00,0,-999,0,0.00
2013-8-6,72,70,69,-100,-100,-100,0,0,100,0.00,40.00,0,-999,0,0.00
2013-8-7,86,80,74,-100,-100,-100,0,0,100,0.00,40.00,0,-999,0,20.99
2013-8-8,79,74,67,-100,-100,-100,0,0,100,0.00,40.00,0,-999,0,0.03
2013-8-9,81,74,68,-100,-100,-100,0,0,100,0.00,40.00,0,-999,0,0.00
2013-8-10,80,73,65,-100,-100,-100,0,0,100,0.00,40.00,0,-999,0,0.00
2013-8-11,87,72,60,-100,-100,-100,0,0,100,0.00,40.00,0,-999,0,0.00
2013-8-12,80,73,66,-100,-100,-100,0,0,100,0.00,40.00,0,-999,0,0.00
2013-8-13,76,70,63,-100,-100,-100,0,0,100,0.00,40.00,0,-999,0,0.00
2013-8-14,74,64,54,-100,-100,-100,0,0,100,0.00,40.00,0,-999,0,0.00
2013-8-15,75,64,56,-100,-100,-100,0,0,100,0.00,40.00,0,-999,0,0.00
2013-8-16,77,68,59,-100,-100,-100,0,0,100,0.00,40.00,0,-999,0,0.00
2013-8-17,78,68,57,-100,-100,-100,0,0,100,0.00,40.00,0,-999,0,0.00
2013-8-18,83,70,59,-100,-100,-100,0,0,100,0.00,40.00,0,-999,0,0.00
2013-8-19,84,73,63,-100,-100,-100,0,0,100,0.00,40.00,0,-999,0,0.00
2013-8-20,86,76,64,-100,-100,-100,0,0,100,0.00,40.00,0,-999,0,0.00
2013-8-21,89,76,65,-100,-100,-100,0,0,100,0.00,40.00,0,-999,0,0.00
2013-8-22,86,78,68,-100,-100,-100,0,0,100,0.00,40.00,0,-999,0,0.00
2013-8-23,87,78,71,-100,-100,-100,0,0,100,0.00,40.00,0,-999,0,0.00
2013-8-24,89,79,67,-100,-100,-100,0,0,100,0.00,40.00,0,-999,0,0.00
2013-8-25,88,77,66,-100,-100,-100,0,0,100,0.00,40.00,0,-999,0,0.00
2013-8-26,93,80,68,-100,-100,-100,0,0,100,0.00,40.00,0,-999,0,0.00
2013-8-27,91,83,76,-100,-100,-100,0,0,100,0.00,40.00,0,-999,0,0.00
2013-8-28,95,88,80,-100,-100,-100,0,0,100,0.00,40.00,0,-999,0,0.00
2013-8-29,93,83,72,-100,-100,-100,0,0,100,0.00,40.00,0,-999,0,0.00
2013-8-30,98,87,75,-100,-100,-100,0,0,100,0.00,40.00,0,-999,0,0.00
2013-8-31,95,84,75,-100,-100,-100,0,0,100,0.00,40.00,0,-999,0,0.00
2013-9-1,89,80,72,-100,-100,-100,0,0,100,0.00,40.00,0,-999,0,0.00
2013-9-2,80,72,65,-100,-100,-100,0,0,100,0.00,40.00,0,-999,0,0.00
2013-9-3,81,67,56,-100,-100,-100,0,0,100,0.00,40.00,0,-999,0,0.00
2013-9-4,87,72,58,-100,-100,-100,0,0,100,0.00,40.00,0,-999,0,0.00
2013-9-5,88,73,61,-100,-100,-100,0,0,100,0.00,40.00,0,-999,0,0.00
2013-9-6,87,73,64,-100,-100,-100,0,0,100,0.00,40.00,0,-999,0,0.00
2013-9-7,91,77,62,-100,-100,-100,0,0,100,0.00,40.00,0,-999,0,0.00
2013-9-8,86,78,72,-100,-100,-100,0,0,100,0.00,40.00,0,-999,0,1.82
2013-9-9,95,82,73,-100,-100,-100,0,0,100,0.00,40.00,0,-999,0,0.74
2013-9-10,94,82,71,-100,-100,-100,0,0,100,0.00,40.00,0,-999,0,0.00
2013-9-11,93,82,71,-100,-100,-100,0,0,100,0.00,40.00,0,-999,0,0.00
2013-9-12,80,74,68,-100,-100,-100,0,0,100,0.00,40.00,0,-999,0,0.27
2013-9-13,71,62,54,-100,-100,-100,0,0,100,0.00,40.00,0,-999,0,0.02
2013-9-14,74,60,51,-100,-100,-100,0,0,100,0.00,40.00,0,-999,0,0.00
2013-9-15,75,63,55,-100,-100,-100,0,0,100,0.00,40.00,0,-999,0,0.01
2013-9-16,69,64,59,-100,-100,-100,0,0,100,0.00,40.00,0,-999,0,0.01
2013-9-17,70,62,56,-100,-100,-100,0,0,100,0.00,40.00,0,-999,0,0.00
2013-9-18,75,64,63,-100,-100,-100,0,0,100,0.00,40.00,0,-999,0,0.05
2013-9-19,88,79,71,-100,-100,-100,0,0,100,0.00,40.00,0,-999,0,0.13
2013-9-20,71,67,59,-100,-100,-100,0,0,100,0.00,40.00,0,-999,0,0.25
2013-9-21,71,60,53,-100,-100,-100,0,0,100,0.00,40.00,0,-999,0,0.01
2013-9-22,74,59,49,-100,-100,-100,0,0,100,0.00,40.00,0,-999,0,0.00
2013-9-23,76,63,51,-100,-100,-100,0,0,100,0.00,40.00,0,-999,0,0.00
2013-9-24,80,65,52,-100,-100,-100,0,0,100,0.00,40.00,0,-999,0,0.00
2013-9-25,82,68,60,-100,-100,-100,0,0,100,0.00,40.00,0,-999,0,0.00
2013-9-26,83,70,59,-100,-100,-100,0,0,100,0.00,40.00,0,-999,0,0.00
2013-9-27,82,69,59,-100,-100,-100,0,0,100,0.00,40.00,0,-999,0,0.00
2013-9-28,80,68,60,-100,-100,-100,0,0,100,0.00,40.00,0,-999,0,0.28
2013-9-29,72,60,53,-100,-100,-100,0,0,100,0.00,40.00,0,-999,0,0.01
2013-9-30,78,64,49,-100,-100,-100,0,0,100,0.00,40.00,0,-999,0,0.00
2013-10-1,75,71,68,-100,-100,-100,0,0,100,0.00,40.00,0,-999,0,0.00
2013-10-2,84,72,64,-100,-100,-100,0,0,100,0.00,40.00,0,-999,0,0.00
2013-10-3,84,74,68,-100,-100,-100,0,0,100,0.00,40.00,0,-999,0,0.51
2013-10-4,87,79,67,-100,-100,-100,0,0,100,0.00,40.00,0,-999,0,0.01
2013-10-5,76,70,56,-100,-100,-100,0,0,100,0.00,40.00,0,-999,0,0.05
2013-10-6,54,52,49,-100,-100,-100,0,0,100,0.00,40.00,0,-999,0,0.01
2013-10-7,71,58,49,-100,-100,-100,0,0,100,0.00,40.00,0,-999,0,0.01
2013-10-8,76,60,47,-100,-100,-100,0,0,100,0.00,40.00,0,-999,0,0.00
2013-10-9,75,60,49,-100,-100,-100,0,0,100,0.00,40.00,0,-999,0,0.00
2013-10-10,77,65,50,-100,-100,-100,0,0,100,0.00,40.00,0,-999,0,0.00
2013-10-11,80,67,54,-100,-100,-100,0,0,100,0.00,40.00,0,-999,0,0.00
2013-10-12,73,65,55,-100,-100,-100,0,0,100,0.00,40.00,0,-999,0,0.00
2013-10-13,69,56,45,-100,-100,-100,0,0,100,0.00,40.00,0,-999,0,0.00
2013-10-14,69,54,43,-100,-100,-100,0,0,100,0.00,40.00,0,-999,0,0.00
2013-10-15,69,61,55,-100,-100,-100,0,0,100,0.00,40.00,0,-999,0,0.16
2013-10-16,55,51,47,-100,-100,-100,0,0,100,0.00,40.00,0,-999,0,0.04
2013-10-17,63,54,48,-100,-100,-100,0,0,100,0.00,40.00,0,-999,0,0.04
2013-10-18,55,49,44,-100,-100,-100,0,0,100,0.00,40.00,0,-999,0,0.01
2013-10-19,58,48,39,-100,-100,-100,0,0,100,0.00,40.00,0,-999,0,0.06
2013-10-20,72,55,42,-100,-100,-100,0,0,100,0.00,40.00,0,-999,0,0.01
2013-10-21,60,50,40,-100,-100,-100,0,0,100,0.00,40.00,0,-999,0,0.00
2013-10-22,50,41,36,-100,-100,-100,0,0,100,0.00,40.00,0,-999,0,0.07
2013-10-23,47,41,35,-100,-100,-100,0,0,100,0.00,40.00,0,-999,0,0.04
2013-10-24,42,40,31,-100,-100,-100,0,0,100,0.00,40.00,0,-999,0,0.00
2013-10-25,53,34,27,-100,-100,-100,0,0,100,0.00,40.00,0,-999,0,0.00
2013-10-26,53,48,45,-100,-100,-100,0,0,100,0.00,40.00,0,-999,0,0.00
2013-10-27,60,44,35,-100,-100,-100,0,0,100,0.00,40.00,0,-999,0,0.00
2013-10-28,66,44,34,-100,-100,-100,0,0,100,0.00,40.00,0,-999,0,0.00
2013-10-29,57,50,42,-100,-100,-100,0,0,100,0.00,40.00,0,-999,0,0.05
2013-10-30,66,60,55,-100,-100,-100,0,0,100,0.00,40.00,0,-999,0,1.15
2013-10-31,60,52,47,-100,-100,-100,0,0,100,0.00,40.00,0,-999,0,0.02
2013-11-1,56,49,46,-100,-100,-100,0,0,100,0.00,40.00,0,-999,0,0.11
2013-11-2,53,48,42,-100,-100,-100,0,0,100,0.00,40.00,0,-999,0,0.00
2013-11-3,57,42,32,-100,-100,-100,0,0,100,0.00,40.00,0,-999,0,0.00
2013-11-4,60,52,46,-100,-100,-100,0,0,100,0.00,40.00,0,-999,0,0.00
2013-11-5,58,55,53,-100,-100,-100,0,0,100,0.00,40.00,0,-999,0,0.27
2013-11-6,59,52,45,-100,-100,-100,0,0,100,0.00,40.00,0,-999,0,0.65
2013-11-7,54,43,33,-100,-100,-100,0,0,100,0.00,40.00,0,-999,0,0.12
2013-11-8,55,46,32,-100,-100,-100,0,0,100,0.00,40.00,0,-999,0,0.00
2013-11-9,66,56,51,-100,-100,-100,0,0,100,0.00,40.00,0,-999,0,0.00
2013-11-10,54,45,38,-100,-100,-100,0,0,100,0.00,40.00,0,-999,0,0.00
2013-11-11,60,44,32,-100,-100,-100,0,0,100,0.00,40.00,0,-999,0,0.00
2013-11-12,34,30,23,-100,-100,-100,0,0,100,0.00,40.00,0,-999,0,0.00
2013-11-13,46,32,19,-100,-100,-100,0,0,100,0.00,40.00,0,-999,0,0.00
2013-11-14,57,42,33,-100,-100,-100,0,0,100,0.00,40.00,0,-999,0,0.00
2013-11-15,54,44,36,-100,-100,-100,0,0,100,0.00,40.00,0,-999,0,0.00
2013-11-16,64,56,48,-100,-100,-100,0,0,100,0.00,40.00,0,-999,0,0.06
2013-11-17,73,63,48,-100,-100,-100,0,0,100,0.00,40.00,0,-999,0,0.36
2013-11-18,53,44,33,-100,-100,-100,0,0,100,0.00,40.00,0,-999,0,0.01
2013-11-19,48,39,30,-100,-100,-100,0,0,100,0.00,40.00,0,-999,0,0.00
2013-11-20,44,39,35,-100,-100,-100,0,0,100,0.00,40.00,0,-999,0,0.13
2013-11-21,50,48,45,-100,-100,-100,0,0,100,0.00,40.00,0,-999,0,0.16
2013-11-22,43,37,32,-100,-100,-100,0,0,100,0.00,40.00,0,-999,0,0.02
2013-11-23,28,24,19,-100,-100,-100,0,0,100,0.00,40.00,0,-999,0,0.00
2013-11-24,30,21,13,-100,-100,-100,0,0,100,0.00,40.00,0,-999,0,0.00
2013-11-25,36,33,27,-100,-100,-100,0,0,100,0.00,40.00,0,-999,0,0.00
2013-11-26,36,30,23,-100,-100,-100,0,0,100,0.00,40.00,0,-999,0,0.00
2013-11-27,29,23,17,-100,-100,-100,0,0,100,0.00,40.00,0,-999,0,0.00
2013-11-28,42,30,20,-100,-100,-100,0,0,100,0.00,40.00,0,-999,0,0.00
2013-11-29,42,32,19,-100,-100,-100,0,0,100,0.00,40.00,0,-999,0,0.00
2013-11-30,55,37,28,-100,-100,-100,0,0,100,0.00,40.00,0,-999,0,0.00
2013-12-1,51,39,28,-100,-100,-100,0,0,100,0.00,40.00,0,-999,0,0.00
2013-12-2,50,39,34,-100,-100,-100,0,0,100,0.00,40.00,0,-999,0,0.00
2013-12-3,55,43,34,-100,-100,-100,0,0,100,0.00,40.00,0,-999,0,0.00
2013-12-4,62,52,42,-100,-100,-100,0,0,100,0.00,40.00,0,-999,0,0.00
2013-12-5,32,26,23,-100,-100,-100,0,0,100,0.00,40.00,0,-999,0,0.00
2013-12-6,22,19,14,-100,-100,-100,0,0,100,0.00,40.00,0,-999,0,0.00
2013-12-7,22,15,9,-100,-100,-100,0,0,100,0.00,40.00,0,-999,0,0.00
2013-12-8,27,24,19,-100,-100,-100,0,0,100,0.00,40.00,0,-999,0,0.00
2013-12-9,26,22,19,-100,-100,-100,0,0,100,0.00,40.00,0,-999,0,0.01
2013-12-10,33,24,13,-100,-100,-100,0,0,100,0.00,40.00,0,-999,0,0.01
2013-12-11,28,21,8,-100,-100,-100,0,0,100,0.00,40.00,0,-999,0,0.00
2013-12-12,40,21,7,-100,-100,-100,0,0,100,0.00,40.00,0,-999,0,0.00
2013-12-13,38,28,19,-100,-100,-100,0,0,100,0.00,40.00,0,-999,0,0.29
2013-12-14,33,31,25,-100,-100,-100,0,0,100,0.00,40.00,0,-999,0,0.04
2013-12-15,28,24,17,-100,-100,-100,0,0,100,0.00,40.00,0,-999,0,0.03
2013-12-16,27,24,20,-100,-100,-100,0,0,100,0.00,40.00,0,-999,0,0.00
2013-12-17,39,33,27,-100,-100,-100,0,0,100,0.00,40.00,0,-999,0,0.36
2013-12-18,48,34,19,-100,-100,-100,0,0,100,0.00,40.00,0,-999,0,0.17
2013-12-19,52,49,44,-100,-100,-100,0,0,100,0.00,40.00,0,-999,0,0.00
2013-12-20,49,42,33,-100,-100,-100,0,0,100,0.00,40.00,0,-999,0,0.02
2013-12-21,33,32,30,-100,-100,-100,0,0,100,0.00,40.00,0,-999,0,0.00
2013-12-22,33,30,22,-100,-100,-100,0,0,100,0.00,40.00,0,-999,0,0.13
2013-12-23,21,16,9,-100,-100,-100,0,0,100,0.00,40.00,0,-999,0,0.02
2013-12-24,23,16,4,-100,-100,-100,0,0,100,0.00,40.00,0,-999,0,0.01
2013-12-25,34,31,24,-100,-100,-100,0,0,100,0.00,40.00,0,-999,0,0.00
2013-12-26,44,33,24,-100,-100,-100,0,0,100,0.00,40.00,0,-999,0,0.00
2013-12-27,50,37,27,-100,-100,-100,0,0,100,0.00,40.00,0,-999,0,0.00
2013-12-28,56,45,32,-100,-100,-100,0,0,100,0.00,40.00,0,-999,0,0.00
2013-12-29,37,23,17,-100,-100,-100,0,0,100,0.00,40.00,0,-999,0,0.00
2013-12-30,22,14,6,-100,-100,-100,0,0,100,0.00,40.00,0,-999,0,0.00
2013-12-31,36,26,17,-100,-100,-100,0,0,100,0.00,40.00,0,-999,0,0.00
2014-1-1,28,24,20,-100,-100,-100,0,0,100,0.00,40.00,0,-999,0,0.00
2014-1-2,18,15,6,-100,-100,-100,0,0,100,0.00,40.00,0,-999,0,0.03